Regional Weather Roundup
Issued by NWS Little Rock, AR

Home | Current Version | Previous Version | Text Only | Print | Product List | Glossary On
Versions: 1 2 3 4 5 6 7 8 9 10 11 12 13 14 15 16 17 18 19 20 21 22 23 24 25 26 27 28 29 30 31 32 33 34 35 36 37 38 39 40 41 42 43 44 45 46 47 48 49 50
000
ASUS44 KLZK 071812
RWRLZK

WEATHER ROUNDUP FOR ARKANSAS
NATIONAL WEATHER SERVICE LITTLE ROCK AR
1200 PM CST WED DEC 07 2016

NOTE: "FAIR" INDICATES FEW OR NO CLOUDS BELOW 12,000 FEET WITH NO
SIGNIFICANT WEATHER AND/OR OBSTRUCTIONS TO VISIBILITY.

ARZ001-003-010-029-071900-
NORTHWEST ARKANSAS

CITY           SKY/WX    TMP DP  RH WIND       PRES   REMARKS
FAYETTEVILLE   CLOUDY    34  21  59 E9        30.18F WCI  27
6HR MIN TEMP:  30; 6HR MAX TEMP:  35;

FORT SMITH     CLOUDY    41  24  51 E9        30.18F
6HR MIN TEMP:  39; 6HR MAX TEMP:  41;

HARRISON       CLOUDY    34  17  50 VRB5      30.19F WCI  30
6HR MIN TEMP:  29; 6HR MAX TEMP:  34;

BENTONVILLE    CLOUDY    36  12  38 NE9       30.19F
6HR MIN TEMP:  30; 6HR MAX TEMP:  36;

ROGERS         CLOUDY    34  15  46 NE12      30.19F WCI  25
6HR MIN TEMP:  30; 6HR MAX TEMP:  34;

SILOAM SPGS    CLOUDY    36  18  48 E7        30.19F
6HR MIN TEMP:  32; 6HR MAX TEMP:  36;

HIGHFILL       CLOUDY    36  18  48 NE8       30.18F
6HR MIN TEMP:  30; 6HR MAX TEMP:  36; 6HR PCP: TRACE;

SPRINGDALE     CLOUDY    36  16  44 NE9       30.20F
$$

ARZ004-005-016-071900-
NORTH CENTRAL ARKANSAS

CITY           SKY/WX    TMP DP  RH WIND       PRES   REMARKS
BATESVILLE     CLOUDY    39  21  48 N3        30.22S
6HR MIN TEMP:  36; 6HR MAX TEMP:  39;

FLIPPIN        CLOUDY    36  16  44 E3        30.19F
6HR MIN TEMP:  30; 6HR MAX TEMP:  37;

MTN HOME       CLOUDY    35  20  54 E5        30.20F WCI  31
6HR MIN TEMP:  30; 6HR MAX TEMP:  35;

$$

ARZ040-041-071900-
WEST CENTRAL ARKANSAS

CITY           SKY/WX    TMP DP  RH WIND       PRES   REMARKS
MENA           CLOUDY    43  39  87 E7        30.13F
$$

ARZ009-017-025-026-028-071900-
NORTHEAST ARKANSAS

CITY           SKY/WX    TMP DP  RH WIND       PRES   REMARKS
CORNING        CLOUDY    39  25  56 NE10      30.22F
JONESBORO      CLOUDY    42  28  57 E15       30.20F
6HR MIN TEMP:  35; 6HR MAX TEMP:  42;

NEWPORT        CLOUDY    41  29  62 MISG      30.20F
6HR MIN TEMP:  35; 6HR MAX TEMP:  41;

WALNUT RIDGE   CLOUDY    41  23  48 NE10      30.21F
6HR MIN TEMP:  36; 6HR MAX TEMP:  41;

BLYTHEVILLE    CLOUDY    46  30  53 E6        30.20F
6HR MIN TEMP:  36; 6HR MAX TEMP:  46;

$$

ARZ022-023-033-042-044-071900-
CENTRAL ARKANSAS

CITY           SKY/WX    TMP DP  RH WIND       PRES   REMARKS
LITTLE ROCK    CLOUDY    40  32  73 NE9       30.19F
6HR MIN TEMP:  39; 6HR MAX TEMP:  41;

N LITTLE ROCK    N/A     41  32  71 E7        30.20F
6HR MIN TEMP:  38; 6HR MAX TEMP:  41;

JACKSONVILLE   CLOUDY    41  32  70 NE8       30.18F
6HR MIN TEMP:  40; 6HR MAX TEMP:  42;

SEARCY         CLOUDY    41  29  62 NE12      30.21F
6HR MIN TEMP:  39; 6HR MAX TEMP:  41;

HOT SPRINGS    CLOUDY    42  34  73 E8        30.17F
6HR MIN TEMP:  42; 6HR MAX TEMP:  43;

RUSSELLVILLE   CLOUDY    39  24  55 E7        30.19F
6HR MIN TEMP:  38; 6HR MAX TEMP:  39;

CLINTON        CLOUDY    39  21  48 CALM      30.21F
$$

ARZ036-071900-
EAST ARKANSAS

CITY           SKY/WX    TMP DP  RH WIND       PRES   REMARKS
WEST MEMPHIS   CLOUDY    44  34  67 NE8       30.17F
6HR MIN TEMP:  39; 6HR MAX TEMP:  44;

$$

ARZ050-053-066-070-073-071900-
SOUTHWEST ARKANSAS

CITY           SKY/WX    TMP DP  RH WIND       PRES   REMARKS
ARKADELPHIA    CLOUDY    43  38  82 E9        30.19S
6HR MIN TEMP:  43; 6HR MAX TEMP:  43;

CAMDEN         CLOUDY    46  39  76 E3        30.17F
TEXARKANA      CLOUDY    47  41  80 VRB7      30.14F
6HR MIN TEMP:  43; 6HR MAX TEMP:  47;

EL DORADO      CLOUDY    48  43  82 E6        30.15F
6HR MIN TEMP:  44; 6HR MAX TEMP:  48;

DE QUEEN       CLOUDY    47  40  76 E7        30.13F
6HR MIN TEMP:  44; 6HR MAX TEMP:  47;

$$

ARZ056-057-069-071900-
SOUTHEAST ARKANSAS

CITY           SKY/WX    TMP DP  RH WIND       PRES   REMARKS
PINE BLUFF     CLOUDY    43  38  82 NE9       30.17F
6HR MIN TEMP:  42; 6HR MAX TEMP:  43;

STUTTGART      CLOUDY    43  32  65 NE9       30.17F
6HR MIN TEMP:  41; 6HR MAX TEMP:  45;

MONTICELLO     CLOUDY    47  40  76 NE10      30.16F
6HR MIN TEMP:  44; 6HR MAX TEMP:  47;


$$





USA.gov is the U.S. government's official web portal to all federal, state and local government web resources and services.